Time,TemperatureF,DewpointF,PressureIn,WindDirection,WindDirectionDegrees,WindSpeedMPH,WindSpeedGustMPH,Humidity,HourlyPrecipIn,Conditions,Clouds,dailyrainin,SolarRadiationWatts/m^2,SoftwareType,DateUTC
2013-05-19 00:02:00,45.0,21.0,-100.00,NW,325,10.0,17.0,38,0.00,,,0.00,0.000000,,2013-05-19 06:02:00,
2013-05-19 00:11:00,45.0,21.0,-100.00,NW,325,10.0,17.0,38,0.00,,,0.00,0.000000,,2013-05-19 06:11:00,
2013-05-19 00:42:00,45.0,20.0,-100.00,NW,307,8.0,16.0,37,0.00,,,0.00,0.000000,,2013-05-19 06:42:00,
2013-05-19 00:52:00,45.0,20.0,-100.00,NW,307,8.0,16.0,37,0.00,,,0.00,0.000000,,2013-05-19 06:52:00,
2013-05-19 01:01:00,45.0,20.0,-100.00,NW,307,8.0,16.0,37,0.00,,,0.00,0.000000,,2013-05-19 07:01:00,
2013-05-19 01:11:00,45.0,20.0,-100.00,NW,307,8.0,16.0,37,0.00,,,0.00,0.000000,,2013-05-19 07:11:00,
2013-05-19 01:42:00,45.0,21.0,-100.00,West,264,7.0,11.0,38,0.00,,,0.00,0.000000,,2013-05-19 07:42:00,
2013-05-19 01:52:00,45.0,21.0,-100.00,West,264,7.0,11.0,38,0.00,,,0.00,0.000000,,2013-05-19 07:52:00,
2013-05-19 02:01:00,45.0,21.0,-100.00,West,264,7.0,11.0,38,0.00,,,0.00,0.000000,,2013-05-19 08:01:00,
2013-05-19 02:11:00,45.0,21.0,-100.00,West,264,7.0,11.0,38,0.00,,,0.00,0.000000,,2013-05-19 08:11:00,
2013-05-19 02:32:00,43.0,24.0,-100.00,West,273,10.0,17.0,46,0.00,,,0.00,0.000000,,2013-05-19 08:32:00,
2013-05-19 02:42:00,43.0,24.0,-100.00,West,273,10.0,17.0,46,0.00,,,0.00,0.000000,,2013-05-19 08:42:00,
2013-05-19 02:52:00,43.0,24.0,-100.00,West,273,10.0,17.0,46,0.00,,,0.00,0.000000,,2013-05-19 08:52:00,
2013-05-19 03:02:00,43.0,24.0,-100.00,West,273,10.0,17.0,46,0.00,,,0.00,0.000000,,2013-05-19 09:02:00,
2013-05-19 03:11:00,43.0,24.0,-100.00,West,273,10.0,17.0,46,0.00,,,0.00,0.000000,,2013-05-19 09:11:00,
2013-05-19 03:12:00,42.0,24.0,-100.00,WNW,286,11.0,15.0,48,0.00,,,0.00,0.000000,,2013-05-19 09:12:00,
2013-05-19 03:33:00,42.0,24.0,-100.00,WNW,286,11.0,15.0,48,0.00,,,0.00,0.000000,,2013-05-19 09:33:00,
2013-05-19 03:43:00,42.0,24.0,-100.00,WNW,286,11.0,15.0,48,0.00,,,0.00,0.000000,,2013-05-19 09:43:00,
2013-05-19 03:53:00,42.0,24.0,-100.00,WNW,286,11.0,15.0,48,0.00,,,0.00,0.000000,,2013-05-19 09:53:00,
2013-05-19 04:02:00,42.0,24.0,-100.00,WNW,286,11.0,15.0,48,0.00,,,0.00,0.000000,,2013-05-19 10:02:00,
2013-05-19 04:33:00,42.0,22.0,-100.00,WNW,294,9.0,14.0,45,0.00,,,0.00,0.000000,,2013-05-19 10:33:00,
2013-05-19 04:42:00,42.0,22.0,-100.00,WNW,294,9.0,14.0,45,0.00,,,0.00,0.000000,,2013-05-19 10:42:00,
2013-05-19 04:52:00,42.0,22.0,-100.00,WNW,294,9.0,14.0,45,0.00,,,0.00,0.000000,,2013-05-19 10:52:00,
2013-05-19 05:02:00,42.0,22.0,-100.00,WNW,294,9.0,14.0,45,0.00,,,0.00,0.000000,,2013-05-19 11:02:00,
2013-05-19 05:11:00,42.0,22.0,-100.00,WNW,294,9.0,14.0,45,0.00,,,0.00,0.000000,,2013-05-19 11:11:00,
2013-05-19 05:32:00,42.0,23.0,-100.00,WNW,292,11.0,16.0,46,0.00,,,0.00,0.000000,,2013-05-19 11:32:00,
2013-05-19 05:42:00,42.0,23.0,-100.00,WNW,292,11.0,16.0,46,0.00,,,0.00,0.000000,,2013-05-19 11:42:00,
2013-05-19 05:52:00,42.0,23.0,-100.00,WNW,292,11.0,16.0,46,0.00,,,0.00,0.000000,,2013-05-19 11:52:00,
2013-05-19 06:01:00,42.0,23.0,-100.00,WNW,292,11.0,16.0,46,0.00,,,0.00,0.000000,,2013-05-19 12:01:00,
2013-05-19 06:11:00,42.0,23.0,-100.00,WNW,292,11.0,16.0,46,0.00,,,0.00,0.000000,,2013-05-19 12:11:00,
2013-05-19 06:32:00,41.0,22.0,-100.00,WNW,291,9.0,16.0,46,0.00,,,0.00,2.000000,,2013-05-19 12:32:00,
2013-05-19 06:42:00,41.0,22.0,-100.00,WNW,291,9.0,16.0,46,0.00,,,0.00,2.000000,,2013-05-19 12:42:00,
2013-05-19 06:52:00,41.0,22.0,-100.00,WNW,291,9.0,16.0,46,0.00,,,0.00,2.000000,,2013-05-19 12:52:00,
2013-05-19 07:01:00,41.0,22.0,-100.00,WNW,291,9.0,16.0,46,0.00,,,0.00,2.000000,,2013-05-19 13:01:00,
2013-05-19 07:11:00,41.0,22.0,-100.00,WNW,291,9.0,16.0,46,0.00,,,0.00,2.000000,,2013-05-19 13:11:00,
2013-05-19 07:42:00,42.0,23.0,-100.00,West,270,5.0,13.0,47,0.00,,,0.00,84.000000,,2013-05-19 13:42:00,
2013-05-19 07:52:00,42.0,23.0,-100.00,West,270,5.0,13.0,47,0.00,,,0.00,84.000000,,2013-05-19 13:52:00,
2013-05-19 08:02:00,42.0,23.0,-100.00,West,270,5.0,13.0,47,0.00,,,0.00,84.000000,,2013-05-19 14:02:00,
2013-05-19 08:11:00,42.0,23.0,-100.00,West,270,5.0,13.0,47,0.00,,,0.00,84.000000,,2013-05-19 14:11:00,
2013-05-19 08:42:00,45.0,23.0,-100.00,West,274,5.0,14.0,42,0.00,,,0.00,275.000000,,2013-05-19 14:42:00,
2013-05-19 08:52:00,45.0,23.0,-100.00,West,274,5.0,14.0,42,0.00,,,0.00,275.000000,,2013-05-19 14:52:00,
2013-05-19 09:01:00,45.0,23.0,-100.00,West,274,5.0,14.0,42,0.00,,,0.00,275.000000,,2013-05-19 15:01:00,
2013-05-19 09:11:00,45.0,23.0,-100.00,West,274,5.0,14.0,42,0.00,,,0.00,275.000000,,2013-05-19 15:11:00,
2013-05-19 09:12:00,48.0,26.0,-100.00,West,264,6.0,12.0,42,0.00,,,0.00,416.000000,,2013-05-19 15:12:00,
2013-05-19 09:43:00,48.0,26.0,-100.00,West,264,6.0,12.0,42,0.00,,,0.00,416.000000,,2013-05-19 15:43:00,
2013-05-19 09:53:00,48.0,26.0,-100.00,West,264,6.0,12.0,42,0.00,,,0.00,416.000000,,2013-05-19 15:53:00,
2013-05-19 10:03:00,48.0,26.0,-100.00,West,264,6.0,12.0,42,0.00,,,0.00,416.000000,,2013-05-19 16:03:00,
2013-05-19 10:12:00,51.0,23.0,-100.00,WNW,290,10.0,16.0,33,0.00,,,0.00,622.000000,,2013-05-19 16:12:00,
2013-05-19 10:42:00,51.0,23.0,-100.00,WNW,290,10.0,16.0,33,0.00,,,0.00,622.000000,,2013-05-19 16:42:00,
2013-05-19 10:52:00,51.0,23.0,-100.00,WNW,290,10.0,16.0,33,0.00,,,0.00,622.000000,,2013-05-19 16:52:00,
2013-05-19 11:02:00,51.0,23.0,-100.00,WNW,290,10.0,16.0,33,0.00,,,0.00,622.000000,,2013-05-19 17:02:00,
2013-05-19 11:12:00,54.0,24.0,-100.00,West,272,10.0,20.0,31,0.00,,,0.00,840.000000,,2013-05-19 17:12:00,
2013-05-19 11:43:00,54.0,24.0,-100.00,West,272,10.0,20.0,31,0.00,,,0.00,840.000000,,2013-05-19 17:43:00,
2013-05-19 11:52:00,54.0,24.0,-100.00,West,272,10.0,20.0,31,0.00,,,0.00,840.000000,,2013-05-19 17:52:00,
2013-05-19 12:02:00,54.0,24.0,-100.00,West,272,10.0,20.0,31,0.00,,,0.00,840.000000,,2013-05-19 18:02:00,
2013-05-19 12:32:00,55.0,22.0,-100.00,WNW,282,11.0,19.0,27,0.00,,,-99.99,774.000000,,2013-05-19 18:32:00,
2013-05-19 12:43:00,55.0,22.0,-100.00,WNW,282,11.0,19.0,27,0.00,,,-99.99,774.000000,,2013-05-19 18:43:00,
2013-05-19 12:53:00,55.0,22.0,-100.00,WNW,282,11.0,19.0,27,0.00,,,-99.99,774.000000,,2013-05-19 18:53:00,
2013-05-19 13:01:00,55.0,22.0,-100.00,WNW,282,11.0,19.0,27,0.00,,,-99.99,774.000000,,2013-05-19 19:01:00,
2013-05-19 13:11:00,55.0,22.0,-100.00,WNW,282,11.0,19.0,27,0.00,,,-99.99,774.000000,,2013-05-19 19:11:00,
2013-05-19 13:32:00,52.0,25.0,-100.00,NW,314,7.0,21.0,34,0.00,,,0.00,460.000000,,2013-05-19 19:32:00,
2013-05-19 13:42:00,52.0,25.0,-100.00,NW,314,7.0,21.0,34,0.00,,,0.00,460.000000,,2013-05-19 19:42:00,
2013-05-19 13:52:00,52.0,25.0,-100.00,NW,314,7.0,21.0,34,0.00,,,0.00,460.000000,,2013-05-19 19:52:00,
2013-05-19 14:02:00,52.0,25.0,-100.00,NW,314,7.0,21.0,34,0.00,,,0.00,460.000000,,2013-05-19 20:02:00,
2013-05-19 14:11:00,52.0,25.0,-100.00,NW,314,7.0,21.0,34,0.00,,,0.00,460.000000,,2013-05-19 20:11:00,
2013-05-19 14:42:00,49.0,20.0,-100.00,NNW,340,10.0,18.0,32,0.00,,,-99.99,452.000000,,2013-05-19 20:42:00,
2013-05-19 14:52:00,49.0,20.0,-100.00,NNW,340,10.0,18.0,32,0.00,,,-99.99,452.000000,,2013-05-19 20:52:00,
2013-05-19 15:02:00,49.0,20.0,-100.00,NNW,340,10.0,18.0,32,0.00,,,-99.99,452.000000,,2013-05-19 21:02:00,
2013-05-19 15:11:00,49.0,20.0,-100.00,NNW,340,10.0,18.0,32,0.00,,,-99.99,452.000000,,2013-05-19 21:11:00,
2013-05-19 15:12:00,59.0,26.0,-100.00,NW,323,12.0,26.0,28,0.00,,,0.00,664.000000,,2013-05-19 21:12:00,
2013-05-19 15:32:00,59.0,26.0,-100.00,NW,323,12.0,26.0,28,0.00,,,0.00,664.000000,,2013-05-19 21:32:00,
2013-05-19 15:43:00,59.0,26.0,-100.00,NW,323,12.0,26.0,28,0.00,,,0.00,664.000000,,2013-05-19 21:43:00,
2013-05-19 15:53:00,59.0,26.0,-100.00,NW,323,12.0,26.0,28,0.00,,,0.00,664.000000,,2013-05-19 21:53:00,
2013-05-19 16:02:00,59.0,26.0,-100.00,NW,323,12.0,26.0,28,0.00,,,0.00,664.000000,,2013-05-19 22:02:00,
2013-05-19 16:42:00,55.0,17.0,-100.00,NNW,332,12.0,23.0,22,0.00,,,0.00,687.000000,,2013-05-19 22:42:00,
2013-05-19 16:53:00,55.0,17.0,-100.00,NNW,332,12.0,23.0,22,0.00,,,0.00,687.000000,,2013-05-19 22:53:00,
2013-05-19 17:02:00,55.0,17.0,-100.00,NNW,332,12.0,23.0,22,0.00,,,0.00,687.000000,,2013-05-19 23:02:00,
2013-05-19 17:11:00,55.0,17.0,-100.00,NNW,332,12.0,23.0,22,0.00,,,0.00,687.000000,,2013-05-19 23:11:00,
2013-05-19 17:42:00,57.0,19.0,-100.00,NW,306,10.0,24.0,22,0.00,,,0.00,557.000000,,2013-05-19 23:42:00,
2013-05-19 17:52:00,57.0,19.0,-100.00,NW,306,10.0,24.0,22,0.00,,,0.00,557.000000,,2013-05-19 23:52:00,
2013-05-19 18:02:00,57.0,19.0,-100.00,NW,306,10.0,24.0,22,0.00,,,0.00,557.000000,,2013-05-20 00:02:00,
2013-05-19 18:11:00,57.0,19.0,-100.00,NW,306,10.0,24.0,22,0.00,,,0.00,557.000000,,2013-05-20 00:11:00,
2013-05-19 18:42:00,56.0,19.0,-100.00,NW,323,11.0,22.0,23,0.00,,,-99.99,194.000000,,2013-05-20 00:42:00,
2013-05-19 18:52:00,56.0,19.0,-100.00,NW,323,11.0,22.0,23,0.00,,,-99.99,194.000000,,2013-05-20 00:52:00,
2013-05-19 19:01:00,56.0,19.0,-100.00,NW,323,11.0,22.0,23,0.00,,,-99.99,194.000000,,2013-05-20 01:01:00,
2013-05-19 19:11:00,56.0,19.0,-100.00,NW,323,11.0,22.0,23,0.00,,,-99.99,194.000000,,2013-05-20 01:11:00,
2013-05-19 19:32:00,51.0,17.0,-100.00,NW,324,9.0,21.0,26,0.00,,,0.00,226.000000,,2013-05-20 01:32:00,
2013-05-19 19:42:00,51.0,17.0,-100.00,NW,324,9.0,21.0,26,0.00,,,0.00,226.000000,,2013-05-20 01:42:00,
2013-05-19 19:52:00,51.0,17.0,-100.00,NW,324,9.0,21.0,26,0.00,,,0.00,226.000000,,2013-05-20 01:52:00,
2013-05-19 20:01:00,51.0,17.0,-100.00,NW,324,9.0,21.0,26,0.00,,,0.00,226.000000,,2013-05-20 02:01:00,
2013-05-19 20:11:00,51.0,17.0,-100.00,NW,324,9.0,21.0,26,0.00,,,0.00,226.000000,,2013-05-20 02:11:00,
2013-05-19 20:32:00,46.0,17.0,-100.00,NW,325,7.0,14.0,31,0.00,,,0.00,37.000000,,2013-05-20 02:32:00,
2013-05-19 20:42:00,46.0,17.0,-100.00,NW,325,7.0,14.0,31,0.00,,,0.00,37.000000,,2013-05-20 02:42:00,
2013-05-19 20:52:00,46.0,17.0,-100.00,NW,325,7.0,14.0,31,0.00,,,0.00,37.000000,,2013-05-20 02:52:00,
2013-05-19 21:01:00,46.0,17.0,-100.00,NW,325,7.0,14.0,31,0.00,,,0.00,37.000000,,2013-05-20 03:01:00,
2013-05-19 21:11:00,46.0,17.0,-100.00,NW,325,7.0,14.0,31,0.00,,,0.00,37.000000,,2013-05-20 03:11:00,
2013-05-19 21:12:00,44.0,19.0,-100.00,NNW,336,9.0,14.0,36,0.00,,,0.00,0.000000,,2013-05-20 03:12:00,
2013-05-19 21:33:00,44.0,19.0,-100.00,NNW,336,9.0,14.0,36,0.00,,,0.00,0.000000,,2013-05-20 03:33:00,
2013-05-19 21:43:00,44.0,19.0,-100.00,NNW,336,9.0,14.0,36,0.00,,,0.00,0.000000,,2013-05-20 03:43:00,
2013-05-19 21:52:00,44.0,19.0,-100.00,NNW,336,9.0,14.0,36,0.00,,,0.00,0.000000,,2013-05-20 03:52:00,
2013-05-19 22:02:00,44.0,19.0,-100.00,NNW,336,9.0,14.0,36,0.00,,,0.00,0.000000,,2013-05-20 04:02:00,
2013-05-19 22:33:00,44.0,21.0,-100.00,NNW,327,8.0,13.0,40,0.00,,,0.00,0.000000,,2013-05-20 04:33:00,
2013-05-19 22:43:00,44.0,21.0,-100.00,NNW,327,8.0,13.0,40,0.00,,,0.00,0.000000,,2013-05-20 04:43:00,
2013-05-19 22:52:00,44.0,21.0,-100.00,NNW,327,8.0,13.0,40,0.00,,,0.00,0.000000,,2013-05-20 04:52:00,
2013-05-19 23:02:00,44.0,21.0,-100.00,NNW,327,8.0,13.0,40,0.00,,,0.00,0.000000,,2013-05-20 05:02:00,
2013-05-19 23:11:00,44.0,21.0,-100.00,NNW,327,8.0,13.0,40,0.00,,,0.00,0.000000,,2013-05-20 05:11:00,
2013-05-19 23:32:00,45.0,22.0,-100.00,NNW,341,6.0,9.0,39,0.00,,,0.00,0.000000,,2013-05-20 05:32:00,
2013-05-19 23:42:00,45.0,22.0,-100.00,NNW,341,6.0,9.0,39,0.00,,,0.00,0.000000,,2013-05-20 05:42:00,
2013-05-19 23:52:00,45.0,22.0,-100.00,NNW,341,6.0,9.0,39,0.00,,,0.00,0.000000,,2013-05-20 05:52:00,